Location: Cisewo
(53.3833°N, 14.9000°E)
Time: 21:10:37
(UTC+00:00)

NOAA 18 - Visible Passes

Search period start: 19 September 2021 00:00
Search period end: 29 September 2021 00:00
Orbit: 840 x 861 km, 99.0° (Epoch: 19 September)

Date Brightness Start Highest point End Pass type
(mag) Time Alt. Az. Time Alt. Az. Time Alt. Az.
19 Sep 5.8 19:13:17 32° E 19:14:55 40° ENE 19:20:01 10° N visible
19 Sep 6.0 20:55:17 42° WSW 20:55:36 42° W 21:00:49 10° NNW visible
20 Sep 6.0 19:01:19 28° E 19:03:05 34° ENE 19:07:58 10° N visible
20 Sep 5.7 20:43:20 51° WSW 20:43:36 51° W 20:48:57 10° NNW visible
21 Sep 6.2 18:49:22 23° E 18:51:15 29° ENE 18:55:54 10° N visible
21 Sep 5.4 20:31:22 62° WSW 20:31:36 63° WSW 20:37:04 10° NNW visible
21 Sep 7.7 22:13:22 12° W 22:13:25 12° W 22:15:18 10° WNW visible
22 Sep 6.4 18:37:24 20° E 18:39:27 25° NE 18:43:48 10° N visible
22 Sep 5.1 20:19:24 74° SW 20:19:38 76° WSW 20:25:09 10° NNW visible
22 Sep 7.5 22:01:24 15° W 22:01:24 15° W 22:04:14 10° NW visible
23 Sep 6.6 18:25:26 17° E 18:27:40 21° NE 18:31:40 10° N visible
23 Sep 5.0 20:07:26 83° SSE 20:07:41 89° ENE 20:13:13 10° NNW visible
23 Sep 7.3 21:49:26 18° W 21:49:26 18° W 21:52:49 10° NW visible
24 Sep 6.8 18:13:28 14° E 18:15:53 18° NE 18:19:30 10° N visible
24 Sep 5.0 19:55:28 73° E 19:55:45 75° ENE 20:01:15 10° NNW visible
24 Sep 7.1 21:37:28 22° W 21:37:28 22° W 21:41:13 10° NW visible
25 Sep 7.0 18:01:30 11° ENE 18:04:08 16° NE 18:07:16 10° NNE visible
25 Sep 5.2 19:43:30 61° E 19:43:50 62° ENE 19:49:16 10° NNW visible
25 Sep 6.9 21:25:30 26° W 21:25:30 26° W 21:29:32 10° NW visible
26 Sep 7.1 17:49:52 10° ENE 17:52:25 13° NE 17:54:57 10° NNE visible
26 Sep 5.4 19:31:32 51° E 19:31:57 52° ENE 19:37:16 10° N visible
26 Sep 6.6 21:13:33 31° W 21:13:33 31° W 21:17:47 10° NNW visible
27 Sep 7.2 17:38:58 10° ENE 17:40:42 12° NE 17:42:26 10° NNE visible
27 Sep 5.6 19:19:34 42° ENE 19:20:04 43° ENE 19:25:15 10° N visible
27 Sep 6.4 21:01:35 37° WNW 21:01:35 37° WNW 21:05:59 10° NNW visible
28 Sep 5.8 19:07:36 35° ENE 19:08:13 36° ENE 19:13:13 10° N visible
28 Sep 6.1 20:49:37 44° WNW 20:49:37 44° WNW 20:54:08 10° NNW visible
